Location: Archemont
(49.1579°N, 1.7598°E)
Time: 21:22:17
(UTC+00:00)

IGS 5A - Pass Details

Date: 03 February 2023
Orbit: 578 x 583 km, 97.5° (Epoch: 10 March)

Event Time Altitude Azimuth Distance (km) Brightness Sun altitude
Exits shadow 18:20:10 25° 87° (E) 1,205 4.4 -14.5°
Maximum altitude 18:21:02 27° 66° (ENE) 1,145 4.4 -14.7°
Drops below altitude 10° 18:24:31 10° 9° (N) 1,910 5.9 -15.2°
Sets 18:26:54 0° 357° (N) 2,814 6.9 -15.6°
